Home   Weather   Racine   Past weeks
Flag for USA

Past Weather in Racine, Wisconsin, USA — Yesterday and Last 2 Weeks

Now
33 °F

Light snow. Fog.


Feels Like: 29 °F
Forecast: 36 / 33 °F
Wind: 5 mph from Northwest

Location: Batten International Airport

Current Time: Jan 24, 2020 at 10:59:27 pm

Latest Report: Jan 24, 2020 at 9:53 pm


Visibility: 1 mi

Pressure: 29.80 "Hg

Humidity: 92%

Dew Point: 31 °F

Location of RacineLocation

Past Weather in Racine — Graph

°F

Racine Temperature Yesterday

Maximum temperature yesterday: 36 °F (at 11:30 pm)
Minimum temperature yesterday: 30 °F (at 1:29 am)
Average temperature yesterday: 32 °F

High & Low Weather Summary for the Past Weeks

 TemperatureHumidityPressure
High51 °F (Jan 9, 10:53 pm)97% (Jan 23, 10:16 pm)30.87 "Hg (Jan 23, 10:16 pm)
Low4 °F (Jan 19, 4:53 am)45% (Jan 16, 2:53 pm)29.63 "Hg (Jan 18, 10:00 am)
Average29 °F80%30.18 "Hg
* Reported Jan 9 10:05 pm — Jan 24 9:53 pm, Racine. Weather by CustomWeather, © 2020

Note: Actual official high and low records may vary slightly from our data, if they occured in-between our weather recording intervals... More about our weather records

Racine Weather History for the Previous 24 Hours

Scroll right to see more
 ConditionsComfort  
Time TempWeatherWind HumidityBarometerVisibility
9:53 pm
Fri, Jan 24
33 °FLight snow. Fog.5 mph92%29.80 "Hg1 mi
9:34 pm33 °FLight snow. Fog.5 mph92%29.78 "Hg1 mi
8:53 pm33 °FLight snow. Fog.5 mph92%29.81 "Hg1 mi
8:07 pm33 °FLight snow. Fog.5 mph92%29.80 "Hg2 mi
7:53 pm33 °FLight snow. Fog.3 mph96%29.82 "Hg2 mi
7:07 pm34 °FLight rain. Fog.5 mph97%29.81 "Hg2 mi
6:53 pm35 °FLight rain. Fog.3 mph92%29.83 "Hg3 mi
5:53 pm35 °FLight rain. Low clouds.5 mph92%29.82 "Hg9 mi
4:53 pm35 °FLight rain. Fog.6 mph96%29.83 "Hg6 mi
4:16 pm36 °FLight rain. Fog.6 mph97%29.80 "Hg3 mi
3:58 pm36 °FLight rain. Fog.6 mph97%29.81 "Hg2 mi
3:34 pm37 °FLight rain. Fog.6 mph93%29.81 "Hg2 mi
1:53 pm37 °FFog.6 mph93%29.84 "Hg0 mi
12:53 pm36 °FFog.7 mph97%29.86 "Hg0 mi
11:53 am37 °FFog.6 mph93%29.88 "Hg0 mi
10:53 am37 °FFog.8 mph96%29.91 "Hg0 mi
10:03 am36 °FFog.7 mph97%29.90 "Hg1 mi
9:53 am36 °FFog.8 mph97%29.92 "Hg1 mi
9:35 am36 °FFog.9 mph97%29.90 "Hg1 mi
9:04 am36 °FFog.7 mph92%29.91 "Hg2 mi
7:53 am36 °FLight rain. Fog.8 mph92%29.93 "Hg4 mi
7:17 am36 °FLight rain. Fog.7 mph92%29.92 "Hg3 mi
6:53 am36 °FLight rain. Fog.8 mph92%29.93 "Hg3 mi
5:53 am36 °FLight rain. Fog.9 mph92%29.94 "Hg2 mi
5:25 am36 °FLight rain. Fog.10 mph92%29.93 "Hg2 mi
4:59 am35 °FLight rain. Fog.9 mph92%29.93 "Hg2 mi
3:53 am35 °FLight rain. Fog.9 mph88%29.96 "Hg4 mi
3:38 am34 °FLight rain. Fog.12 mph92%29.95 "Hg3 mi
3:00 am34 °FLight snow. Fog.8 mph92%29.97 "Hg2 mi
2:17 am34 °FLight rain. Fog.6 mph92%29.99 "Hg3 mi
1:53 am34 °FLight snow. Fog.6 mph92%30.01 "Hg2 mi
1:27 am34 °FLight snow. Fog.8 mph88%30.00 "Hg2 mi
1:02 am35 °FLight rain. Fog.8 mph88%30.01 "Hg4 mi
12:26 am36 °FLight rain. Fog.7 mph85%30.02 "Hg6 mi
12:15 am35 °FLight rain. Fog.9 mph88%30.02 "Hg5 mi
11:53 pm
Thu, Jan 23
36 °FLight rain. Fog.6 mph89%30.04 "Hg6 mi
11:30 pm36 °FMostly cloudy.7 mph85%30.03 "Hg7 mi
11:08 pm35 °FMostly cloudy.7 mph88%30.03 "Hg7 mi
10:43 pm34 °FFog.5 mph92%30.03 "Hg4 mi
10:16 pm34 °FFog.No wind97%30.03 "Hg5 mi
Weather by CustomWeather, © 2020

See weather overview

Advertising